This is the latest recevied weather packets stored in our database for station/object N9XRG. If no packets are shown the sender has not sent any weather packets the latest 10 day(s).
| Time | Temp. | Humidity | Pressure | Rain* | Wind** | Luminosity | Snow |
|---|---|---|---|---|---|---|---|
| 1777617933 | 7.22° C | 93% | 1013.4 hPa | 1.27 mm | - | 0 W/m² | - |
| 1777617628 | 7.22° C | 93% | 1013.5 hPa | 1.27 mm | - | 0 W/m² | - |
| 1777617324 | 7.22° C | 92% | 1013.4 hPa | 1.78 mm | - | 0 W/m² | - |
| 1777617022 | 7.22° C | 92% | 1013.6 hPa | 1.78 mm | - | 0 W/m² | - |
| 1777616722 | 7.78° C | 92% | 1013.6 hPa | 1.27 mm | - | 0 W/m² | - |
| 1777616422 | 7.78° C | 92% | 1013.7 hPa | 0.51 mm | - | 0 W/m² | - |
| 1777616119 | 7.78° C | 92% | 1013.9 hPa | 0 mm | - | 0 W/m² | - |
| 1777615816 | 7.78° C | 93% | 1013.5 hPa | 0 mm | - | 0 W/m² | - |
| 1777615514 | 7.78° C | 93% | 1013.7 hPa | 0 mm | - | 0 W/m² | - |
| 1777615209 | 7.78° C | 93% | 1013.7 hPa | 0.51 mm | - | 0 W/m² | - |
| 1777614903 | 7.78° C | 93% | 1014 hPa | 1.78 mm | - | 0 W/m² | - |
| 1777614600 | 7.78° C | 93% | 1013.9 hPa | 0.51 mm | - | 0 W/m² | - |
| 1777614296 | 7.78° C | 93% | 1014.1 hPa | 0.51 mm | - | 0 W/m² | - |
| 1777613991 | 7.78° C | 93% | 1014 hPa | 1.27 mm | - | 0 W/m² | - |
| 1777613687 | 8.33° C | 94% | 1013.8 hPa | 0.51 mm | - | 0 W/m² | - |
| 1777613384 | 8.33° C | 94% | 1014 hPa | 0 mm | - | 0 W/m² | - |
| 1777613080 | 8.33° C | 94% | 1013.8 hPa | 0 mm | - | 0 W/m² | - |
| 1777612777 | 8.33° C | 94% | 1014 hPa | 0 mm | - | 0 W/m² | - |
| 1777612472 | 8.33° C | 93% | 1014.3 hPa | 0 mm | - | 0 W/m² | - |
| 1777612168 | 8.33° C | 93% | 1014.2 hPa | 0 mm | - | 0 W/m² | - |
| 1777611864 | 8.33° C | 93% | 1014.2 hPa | 0.51 mm | - | 0 W/m² | - |
| 1777611560 | 8.33° C | 93% | 1014.4 hPa | 0.51 mm | - | 0 W/m² | - |
| 1777611257 | 8.33° C | 93% | 1014.5 hPa | 1.27 mm | - | 0 W/m² | - |
| 1777610954 | 8.33° C | 93% | 1014.5 hPa | 1.78 mm | - | 0 W/m² | - |
| 1777610649 | 8.33° C | 92% | 1014.4 hPa | 1.78 mm | - | 0 W/m² | - |
* Rain latest hour (hover to see other rain measurements)
** Current wind speed in m/s (hover to see current wind gust speed)